| << 31.7. | 2.8. >> |
|
Windrichtung in Grad |
Windgeschw. in m/s |
Windspitzen in m/s |
Temp.Minima in °C |
Temperatur in °C |
Temp.Maxima in °C |
Luftfeuchte in % |
Luftdruck in hPa |
Taupunkt in °C |
Niederschlag in mm |
|
|---|---|---|---|---|---|---|---|---|---|---|
| ▲ Maxima | 1,5 | 4,6 | 24,7 | 24,9 | 25,2 | 78,5 | 1007,4 | 15,3 | 0,0 | |
| Ø Mittelwert | 352,6 | 0,7 | 2,1 | 20,0 | 20,3 | 20,6 | 51,0 | 1005,9 | 9,8 | 0,0 |
| ▼ Minima | 0,2 | 0,8 | 15,7 | 15,9 | 16,1 | 28,7 | 1004,4 | 5,5 | 0,0 | |
| ∑ Summe | 0,0 |
| Uhrzeit (MEZ) | Windrichtung in Grad | Windgeschw. in m/s | Windspitzen in m/s | Temp.Minima in °C | Temperatur in °C | Temp.Maxima in °C | Luftfeuchte in % | Luftdruck in hPa | Taupunkt in °C | Niederschlag in mm |
|---|---|---|---|---|---|---|---|---|---|---|
| 00:00 | 4,9 | 0,6 | 2,1 | 18,9 | 19,1 | 19,4 | 72,1 | 1004,5 | 15,3 | 0,0 |
| 00:10 | 314,3 | 0,7 | 2,3 | 18,8 | 19,0 | 19,3 | 72,0 | 1004,5 | 15,2 | 0,0 |
| 00:20 | 342,8 | 0,5 | 1,5 | 18,7 | 18,9 | 19,1 | 72,1 | 1004,5 | 15,2 | 0,0 |
| 00:30 | 314,4 | 0,7 | 2,1 | 18,5 | 18,8 | 19,0 | 72,0 | 1004,6 | 15,0 | 0,0 |
| 00:40 | 339,2 | 0,5 | 1,6 | 18,4 | 18,6 | 18,8 | 71,8 | 1004,5 | 14,8 | 0,0 |
| 00:50 | 293,8 | 0,4 | 1,1 | 18,2 | 18,4 | 18,7 | 71,3 | 1004,6 | 14,6 | 0,0 |
| 01:00 | 283,1 | 0,5 | 1,6 | 18,1 | 18,3 | 18,5 | 71,2 | 1004,6 | 14,4 | 0,0 |
| 01:10 | 301,4 | 0,6 | 2,2 | 17,9 | 18,1 | 18,3 | 71,1 | 1004,5 | 14,2 | 0,0 |
| 01:20 | 275,9 | 0,5 | 1,1 | 17,7 | 17,9 | 18,1 | 71,2 | 1004,4 | 14,0 | 0,0 |
| 01:30 | 293,3 | 0,6 | 1,5 | 17,5 | 17,7 | 17,9 | 71,8 | 1004,5 | 14,0 | 0,0 |
| 01:40 | 250,3 | 0,6 | 2,1 | 17,4 | 17,6 | 17,9 | 72,2 | 1004,6 | 13,9 | 0,0 |
| 01:50 | 274,4 | 0,6 | 1,8 | 17,2 | 17,4 | 17,6 | 72,1 | 1004,6 | 13,8 | 0,0 |
| 02:00 | 285,0 | 0,5 | 2,1 | 16,9 | 17,2 | 17,5 | 72,1 | 1004,7 | 13,5 | 0,0 |
| 02:10 | 276,2 | 0,6 | 1,6 | 16,8 | 17,0 | 17,3 | 72,5 | 1004,7 | 13,5 | 0,0 |
| 02:20 | 266,7 | 0,6 | 1,7 | 16,7 | 16,9 | 17,1 | 73,0 | 1004,8 | 13,5 | 0,0 |
| 02:30 | 238,0 | 0,3 | 1,1 | 16,7 | 16,9 | 17,1 | 73,1 | 1005,0 | 13,5 | 0,0 |
| 02:40 | 337,6 | 0,6 | 1,6 | 16,9 | 17,0 | 17,2 | 73,5 | 1005,0 | 13,7 | 0,0 |
| 02:50 | 348,7 | 0,6 | 2,5 | 16,8 | 17,0 | 17,3 | 74,6 | 1005,1 | 13,9 | 0,0 |
| 03:00 | 11,0 | 0,9 | 2,0 | 16,7 | 17,0 | 17,2 | 75,4 | 1005,2 | 14,0 | 0,0 |
| 03:10 | 16,1 | 0,9 | 2,4 | 16,7 | 16,9 | 17,1 | 75,8 | 1005,2 | 14,0 | 0,0 |
| 03:20 | 12,3 | 0,7 | 2,0 | 16,6 | 16,8 | 17,0 | 76,1 | 1005,3 | 14,0 | 0,0 |
| 03:30 | 358,9 | 0,7 | 1,8 | 16,5 | 16,7 | 17,0 | 76,1 | 1005,3 | 13,9 | 0,0 |
| 03:40 | 21,6 | 0,6 | 2,0 | 16,5 | 16,7 | 17,0 | 76,0 | 1005,1 | 13,9 | 0,0 |
| 03:50 | 7,3 | 0,6 | 1,9 | 16,4 | 16,6 | 16,8 | 76,0 | 1005,1 | 13,8 | 0,0 |
| 04:00 | 6,7 | 0,6 | 2,6 | 16,3 | 16,4 | 16,7 | 76,5 | 1005,0 | 13,8 | 0,0 |
| 04:10 | 345,4 | 0,5 | 1,4 | 16,1 | 16,3 | 16,5 | 76,8 | 1005,1 | 13,7 | 0,0 |
| 04:20 | 35,4 | 0,5 | 1,3 | 16,1 | 16,2 | 16,4 | 77,1 | 1005,1 | 13,7 | 0,0 |
| 04:30 | 28,6 | 0,8 | 1,7 | 15,9 | 16,1 | 16,4 | 77,6 | 1005,0 | 13,7 | 0,0 |
| 04:40 | 325,4 | 0,6 | 1,9 | 15,8 | 16,0 | 16,2 | 78,2 | 1005,0 | 13,7 | 0,0 |
| 04:50 | 18,1 | 0,6 | 1,3 | 15,7 | 15,9 | 16,1 | 78,3 | 1005,1 | 13,6 | 0,0 |
| 05:00 | 352,9 | 0,4 | 1,4 | 15,7 | 15,9 | 16,1 | 78,5 | 1005,3 | 13,7 | 0,0 |
| 05:10 | 333,3 | 0,6 | 1,6 | 15,8 | 16,0 | 16,2 | 78,5 | 1005,4 | 13,7 | 0,0 |
| 05:20 | 336,9 | 0,4 | 1,3 | 15,8 | 15,9 | 16,2 | 78,5 | 1005,4 | 13,7 | 0,0 |
| 05:30 | 332,8 | 0,5 | 1,3 | 15,7 | 15,9 | 16,2 | 78,2 | 1005,4 | 13,7 | 0,0 |
| 05:40 | 359,9 | 0,5 | 1,3 | 15,8 | 15,9 | 16,2 | 77,8 | 1005,5 | 13,6 | 0,0 |
| 05:50 | 314,4 | 0,4 | 1,8 | 15,8 | 15,9 | 16,2 | 77,5 | 1005,5 | 13,5 | 0,0 |
| 06:00 | 26,7 | 0,4 | 1,6 | 15,7 | 15,9 | 16,1 | 77,0 | 1005,5 | 13,4 | 0,0 |
| 06:10 | 4,3 | 0,5 | 1,3 | 15,8 | 15,9 | 16,1 | 76,5 | 1005,5 | 13,3 | 0,0 |
| 06:20 | 26,2 | 0,5 | 1,3 | 15,7 | 15,9 | 16,1 | 76,4 | 1005,5 | 13,3 | 0,0 |
| 06:30 | 30,4 | 0,6 | 1,8 | 15,7 | 15,9 | 16,2 | 76,1 | 1005,5 | 13,2 | 0,0 |
| 06:40 | 356,5 | 0,4 | 1,0 | 15,8 | 15,9 | 16,1 | 75,9 | 1005,5 | 13,2 | 0,0 |
| 06:50 | 350,5 | 0,4 | 1,2 | 15,9 | 16,0 | 16,3 | 75,3 | 1005,6 | 13,2 | 0,0 |
| 07:00 | 311,9 | 0,4 | 1,8 | 16,0 | 16,1 | 16,4 | 75,2 | 1005,6 | 13,2 | 0,0 |
| 07:10 | 248,1 | 0,2 | 0,8 | 16,0 | 16,2 | 16,3 | 74,9 | 1005,7 | 13,3 | 0,0 |
| 07:20 | 326,4 | 0,4 | 1,3 | 16,1 | 16,3 | 16,6 | 74,5 | 1005,8 | 13,3 | 0,0 |
| 07:30 | 314,0 | 0,4 | 1,2 | 16,2 | 16,5 | 16,8 | 74,0 | 1005,9 | 13,3 | 0,0 |
| 07:40 | 338,7 | 0,5 | 2,0 | 16,7 | 17,2 | 17,7 | 71,3 | 1005,9 | 13,4 | 0,0 |
| 07:50 | 289,3 | 0,7 | 1,9 | 17,2 | 17,5 | 17,8 | 69,9 | 1006,0 | 13,3 | 0,0 |
| Uhrzeit (MEZ) | Windrichtung in Grad | Windgeschw. in m/s | Windspitzen in m/s | Temp.Minima in °C | Temperatur in °C | Temp.Maxima in °C | Luftfeuchte in % | Luftdruck in hPa | Taupunkt in °C | Niederschlag in mm |
|---|---|---|---|---|---|---|---|---|---|---|
| 08:00 | 9,3 | 0,7 | 2,2 | 17,5 | 17,8 | 18,3 | 66,5 | 1006,1 | 12,8 | 0,0 |
| 08:10 | 272,1 | 0,5 | 1,5 | 18,0 | 18,4 | 19,0 | 64,7 | 1006,2 | 13,0 | 0,0 |
| 08:20 | 6,5 | 0,7 | 2,0 | 18,6 | 18,8 | 19,0 | 63,5 | 1006,2 | 13,0 | 0,0 |
| 08:30 | 356,2 | 1,0 | 2,2 | 18,6 | 18,9 | 19,3 | 62,3 | 1006,3 | 12,7 | 0,0 |
| 08:40 | 289,1 | 0,6 | 3,1 | 18,5 | 18,8 | 19,2 | 61,1 | 1006,3 | 12,4 | 0,0 |
| 08:50 | 11,9 | 0,9 | 2,2 | 18,6 | 18,8 | 19,0 | 60,1 | 1006,4 | 12,1 | 0,0 |
| 09:00 | 342,1 | 1,0 | 2,1 | 18,6 | 19,1 | 19,6 | 58,7 | 1006,3 | 11,9 | 0,0 |
| 09:10 | 9,8 | 0,8 | 2,1 | 19,0 | 19,5 | 20,2 | 55,7 | 1006,4 | 11,6 | 0,0 |
| 09:20 | 310,3 | 0,6 | 1,5 | 19,7 | 20,0 | 20,4 | 54,7 | 1006,4 | 11,8 | 0,0 |
| 09:30 | 356,5 | 1,0 | 2,4 | 20,2 | 20,4 | 20,7 | 52,8 | 1006,3 | 11,4 | 0,0 |
| 09:40 | 318,9 | 0,6 | 1,9 | 20,2 | 20,7 | 21,4 | 50,6 | 1006,3 | 11,1 | 0,0 |
| 09:50 | 307,8 | 0,6 | 1,8 | 20,9 | 21,1 | 21,4 | 48,8 | 1006,3 | 10,9 | 0,0 |
| 10:00 | 4,6 | 0,9 | 2,5 | 21,1 | 21,5 | 21,8 | 47,4 | 1006,4 | 10,7 | 0,0 |
| 10:10 | 5,4 | 0,9 | 3,0 | 21,2 | 21,4 | 21,7 | 45,3 | 1006,4 | 9,9 | 0,0 |
| 10:20 | 331,0 | 0,7 | 2,6 | 21,5 | 22,0 | 22,4 | 45,0 | 1006,4 | 10,4 | 0,0 |
| 10:30 | 340,0 | 1,0 | 4,6 | 21,1 | 21,7 | 22,1 | 45,4 | 1006,4 | 10,2 | 0,0 |
| 10:40 | 272,2 | 1,0 | 2,5 | 21,2 | 21,6 | 21,9 | 45,7 | 1006,4 | 10,2 | 0,0 |
| 10:50 | 0,0 | 1,3 | 3,1 | 21,2 | 21,6 | 22,0 | 45,5 | 1006,5 | 10,1 | 0,0 |
| 11:00 | 5,6 | 0,9 | 3,3 | 20,6 | 21,3 | 21,8 | 45,7 | 1006,5 | 9,9 | 0,0 |
| 11:10 | 288,3 | 0,9 | 2,8 | 21,4 | 21,9 | 22,4 | 44,4 | 1006,5 | 10,0 | 0,0 |
| 11:20 | 19,7 | 1,4 | 3,9 | 21,4 | 21,9 | 22,3 | 43,2 | 1006,5 | 9,5 | 0,0 |
| 11:30 | 263,5 | 0,9 | 2,5 | 21,6 | 22,0 | 22,6 | 42,9 | 1006,4 | 9,6 | 0,0 |
| 11:40 | 294,0 | 1,0 | 2,4 | 21,8 | 22,2 | 22,5 | 41,9 | 1006,4 | 9,4 | 0,0 |
| 11:50 | 14,0 | 0,8 | 2,3 | 22,0 | 22,3 | 22,9 | 42,2 | 1006,5 | 9,6 | 0,0 |
| 12:00 | 25,3 | 1,1 | 3,5 | 22,5 | 23,0 | 23,3 | 40,0 | 1006,5 | 9,3 | 0,0 |
| 12:10 | 291,6 | 1,2 | 3,8 | 22,3 | 22,7 | 22,9 | 38,5 | 1006,6 | 8,4 | 0,0 |
| 12:20 | 33,4 | 0,9 | 2,9 | 22,3 | 22,6 | 23,0 | 38,2 | 1006,6 | 8,3 | 0,0 |
| 12:30 | 21,4 | 1,2 | 3,4 | 22,3 | 22,8 | 23,2 | 38,6 | 1006,6 | 8,5 | 0,0 |
| 12:40 | 23,7 | 1,0 | 3,9 | 22,6 | 23,2 | 23,7 | 37,6 | 1006,5 | 8,5 | 0,0 |
| 12:50 | 1,8 | 1,0 | 3,6 | 22,6 | 23,1 | 23,3 | 37,0 | 1006,5 | 8,2 | 0,0 |
| 13:00 | 338,6 | 0,9 | 2,5 | 23,2 | 23,5 | 23,8 | 35,4 | 1006,5 | 7,9 | 0,0 |
| 13:10 | 311,7 | 0,9 | 3,3 | 22,7 | 23,0 | 23,4 | 35,1 | 1006,5 | 7,3 | 0,0 |
| 13:20 | 25,4 | 1,0 | 2,8 | 23,0 | 23,4 | 23,8 | 33,1 | 1006,4 | 6,7 | 0,0 |
| 13:30 | 313,9 | 0,9 | 3,3 | 23,1 | 23,6 | 23,9 | 32,9 | 1006,3 | 6,8 | 0,0 |
| 13:40 | 293,0 | 0,9 | 3,8 | 23,5 | 24,0 | 24,4 | 32,6 | 1006,4 | 7,0 | 0,0 |
| 13:50 | 293,5 | 0,8 | 3,2 | 23,6 | 24,1 | 24,6 | 32,4 | 1006,3 | 7,0 | 0,0 |
| 14:00 | 317,3 | 0,8 | 2,2 | 23,8 | 24,2 | 24,5 | 31,4 | 1006,3 | 6,5 | 0,0 |
| 14:10 | 12,4 | 1,0 | 2,7 | 23,7 | 23,9 | 24,2 | 32,0 | 1006,3 | 6,6 | 0,0 |
| 14:20 | 18,0 | 1,0 | 2,7 | 23,3 | 23,9 | 24,6 | 31,8 | 1006,2 | 6,4 | 0,0 |
| 14:30 | 358,3 | 1,0 | 2,7 | 24,1 | 24,4 | 24,8 | 31,1 | 1006,2 | 6,5 | 0,0 |
| 14:40 | 22,3 | 0,9 | 2,1 | 23,8 | 24,2 | 24,5 | 31,3 | 1006,1 | 6,4 | 0,0 |
| 14:50 | 1,8 | 1,1 | 3,3 | 23,9 | 24,2 | 24,5 | 31,4 | 1006,1 | 6,5 | 0,0 |
| 15:00 | 330,1 | 1,1 | 2,8 | 23,6 | 24,1 | 24,5 | 31,6 | 1006,1 | 6,5 | 0,0 |
| 15:10 | 14,7 | 0,9 | 2,4 | 24,1 | 24,5 | 24,9 | 31,2 | 1006,1 | 6,7 | 0,0 |
| 15:20 | 11,1 | 1,1 | 2,7 | 23,9 | 24,3 | 24,6 | 30,3 | 1006,1 | 6,0 | 0,0 |
| 15:30 | 352,1 | 0,8 | 2,6 | 23,9 | 24,2 | 24,7 | 29,4 | 1006,0 | 5,5 | 0,0 |
| 15:40 | 308,9 | 0,9 | 2,2 | 24,0 | 24,6 | 25,1 | 29,5 | 1006,0 | 5,9 | 0,0 |
| 15:50 | 21,2 | 1,2 | 3,4 | 24,0 | 24,5 | 25,0 | 30,5 | 1006,0 | 6,2 | 0,0 |
| Uhrzeit (MEZ) | Windrichtung in Grad | Windgeschw. in m/s | Windspitzen in m/s | Temp.Minima in °C | Temperatur in °C | Temp.Maxima in °C | Luftfeuchte in % | Luftdruck in hPa | Taupunkt in °C | Niederschlag in mm |
|---|---|---|---|---|---|---|---|---|---|---|
| 16:00 | 10,4 | 0,7 | 2,6 | 24,2 | 24,5 | 25,0 | 29,8 | 1005,9 | 6,0 | 0,0 |
| 16:10 | 351,5 | 1,0 | 3,0 | 24,7 | 24,9 | 25,2 | 29,8 | 1005,9 | 6,3 | 0,0 |
| 16:20 | 335,7 | 1,0 | 2,7 | 24,3 | 24,6 | 25,0 | 29,6 | 1005,9 | 5,9 | 0,0 |
| 16:30 | 358,7 | 1,1 | 3,1 | 24,5 | 24,9 | 25,1 | 29,1 | 1005,9 | 5,8 | 0,0 |
| 16:40 | 301,1 | 0,9 | 2,3 | 24,2 | 24,7 | 25,1 | 29,2 | 1005,8 | 5,8 | 0,0 |
| 16:50 | 12,3 | 0,9 | 2,0 | 24,4 | 24,7 | 25,0 | 29,1 | 1005,8 | 5,7 | 0,0 |
| 17:00 | 14,5 | 0,8 | 2,0 | 24,5 | 24,7 | 25,0 | 29,3 | 1005,8 | 5,9 | 0,0 |
| 17:10 | 20,5 | 0,9 | 2,3 | 24,4 | 24,8 | 25,1 | 28,8 | 1005,7 | 5,7 | 0,0 |
| 17:20 | 23,9 | 0,8 | 2,7 | 24,5 | 24,8 | 25,2 | 28,7 | 1005,7 | 5,5 | 0,0 |
| 17:30 | 10,9 | 0,8 | 2,1 | 24,6 | 24,8 | 25,2 | 28,8 | 1005,6 | 5,7 | 0,0 |
| 17:40 | 30,3 | 0,8 | 2,6 | 24,3 | 24,7 | 25,1 | 28,8 | 1005,6 | 5,6 | 0,0 |
| 17:50 | 32,1 | 1,5 | 3,5 | 24,1 | 24,6 | 25,1 | 29,4 | 1005,6 | 5,7 | 0,0 |
| 18:00 | 32,4 | 0,9 | 2,4 | 23,8 | 24,2 | 24,5 | 30,1 | 1005,6 | 5,9 | 0,0 |
| 18:10 | 24,1 | 1,0 | 2,1 | 23,6 | 24,0 | 24,3 | 30,3 | 1005,7 | 5,8 | 0,0 |
| 18:20 | 13,2 | 0,7 | 1,8 | 23,6 | 23,7 | 24,0 | 31,1 | 1005,8 | 6,0 | 0,0 |
| 18:30 | 348,6 | 0,6 | 1,9 | 23,2 | 23,6 | 24,0 | 31,0 | 1005,9 | 5,8 | 0,0 |
| 18:40 | 8,0 | 1,1 | 2,6 | 22,9 | 23,2 | 23,7 | 31,9 | 1005,9 | 5,9 | 0,0 |
| 18:50 | 21,3 | 0,8 | 2,4 | 22,6 | 22,9 | 23,3 | 32,7 | 1005,9 | 6,1 | 0,0 |
| 19:00 | 8,1 | 0,6 | 1,8 | 22,4 | 22,7 | 22,9 | 33,5 | 1006,0 | 6,3 | 0,0 |
| 19:10 | 9,9 | 0,5 | 1,9 | 22,3 | 22,4 | 22,7 | 34,5 | 1006,1 | 6,6 | 0,0 |
| 19:20 | 339,3 | 0,5 | 1,5 | 21,8 | 22,1 | 22,4 | 35,3 | 1006,1 | 6,7 | 0,0 |
| 19:30 | 4,7 | 0,6 | 1,4 | 21,5 | 21,7 | 22,0 | 36,2 | 1006,1 | 6,7 | 0,0 |
| 19:40 | 354,5 | 0,5 | 1,2 | 21,2 | 21,4 | 21,6 | 36,5 | 1006,2 | 6,6 | 0,0 |
| 19:50 | 99,7 | 0,3 | 0,9 | 21,2 | 21,3 | 21,4 | 36,6 | 1006,3 | 6,6 | 0,0 |
| 20:00 | 257,8 | 0,4 | 1,2 | 20,7 | 21,0 | 21,2 | 37,2 | 1006,3 | 6,6 | 0,0 |
| 20:10 | 250,8 | 0,3 | 1,0 | 20,6 | 20,7 | 20,8 | 37,5 | 1006,3 | 6,5 | 0,0 |
| 20:20 | 277,9 | 0,4 | 1,1 | 20,4 | 20,5 | 20,8 | 37,7 | 1006,4 | 6,4 | 0,0 |
| 20:30 | 325,7 | 0,2 | 0,9 | 20,2 | 20,3 | 20,6 | 38,2 | 1006,4 | 6,5 | 0,0 |
| 20:40 | 19,1 | 0,4 | 1,3 | 20,1 | 20,3 | 20,5 | 38,2 | 1006,5 | 6,4 | 0,0 |
| 20:50 | 41,0 | 0,6 | 1,3 | 20,2 | 20,4 | 20,7 | 38,1 | 1006,6 | 6,4 | 0,0 |
| 21:00 | 31,2 | 1,0 | 2,4 | 20,4 | 20,7 | 21,0 | 38,0 | 1006,6 | 6,5 | 0,0 |
| 21:10 | 32,4 | 1,2 | 2,9 | 20,5 | 20,8 | 21,0 | 38,1 | 1006,7 | 6,6 | 0,0 |
| 21:20 | 31,0 | 0,8 | 1,7 | 20,3 | 20,6 | 20,9 | 38,6 | 1006,7 | 6,7 | 0,0 |
| 21:30 | 43,6 | 1,1 | 2,3 | 20,4 | 20,6 | 20,8 | 38,9 | 1006,8 | 6,8 | 0,0 |
| 21:40 | 49,0 | 1,1 | 2,6 | 20,2 | 20,5 | 20,7 | 39,3 | 1006,9 | 6,8 | 0,0 |
| 21:50 | 49,3 | 1,0 | 2,0 | 20,0 | 20,3 | 20,5 | 39,8 | 1006,9 | 6,9 | 0,0 |
| 22:00 | 52,8 | 1,1 | 2,1 | 19,9 | 20,2 | 20,4 | 40,3 | 1007,0 | 6,9 | 0,0 |
| 22:10 | 46,9 | 1,1 | 2,1 | 19,8 | 20,0 | 20,2 | 40,9 | 1007,0 | 7,0 | 0,0 |
| 22:20 | 40,4 | 0,8 | 2,3 | 19,6 | 19,8 | 20,1 | 41,4 | 1007,0 | 7,1 | 0,0 |
| 22:30 | 26,6 | 0,7 | 1,4 | 19,4 | 19,6 | 19,8 | 41,7 | 1007,1 | 7,1 | 0,0 |
| 22:40 | 47,1 | 1,0 | 2,0 | 19,4 | 19,6 | 19,8 | 42,0 | 1007,1 | 7,1 | 0,0 |
| 22:50 | 46,0 | 0,8 | 2,5 | 19,2 | 19,4 | 19,7 | 42,4 | 1007,2 | 7,1 | 0,0 |
| 23:00 | 41,0 | 0,7 | 2,1 | 19,1 | 19,3 | 19,6 | 42,7 | 1007,2 | 7,2 | 0,0 |
| 23:10 | 53,4 | 0,5 | 1,9 | 19,0 | 19,1 | 19,4 | 43,2 | 1007,2 | 7,2 | 0,0 |
| 23:20 | 27,6 | 0,6 | 1,2 | 18,8 | 19,0 | 19,2 | 43,7 | 1007,3 | 7,3 | 0,0 |
| 23:30 | 130,5 | 0,3 | 0,8 | 18,5 | 18,7 | 18,9 | 44,5 | 1007,4 | 7,4 | 0,0 |
| 23:40 | 61,4 | 0,4 | 1,5 | 18,2 | 18,4 | 18,7 | 45,3 | 1007,4 | 7,4 | 0,0 |
| 23:50 | 130,2 | 0,2 | 0,8 | 17,9 | 18,1 | 18,3 | 46,4 | 1007,4 | 7,5 | 0,0 |
| << 31.7. | 2.8. >> |